Weather History for KSAW - February, 2013

Change the Weather History Date:

Tuesday, February 19, 2013

  Actual Average (KMQT) Record (KMQT)
Temperature  
Mean Temperature 19 °F 16 °F  
Max Temperature 30 °F 27 °F 46 °F (1988)
Min Temperature 8 °F 6 °F -25 °F (2015)
Degree Days  
Heating Degree Days 46 49  
Month to date heating degree days 959  
Since 1 July heating degree days 6196  
Cooling Degree Days 0 0  
Month to date cooling degree days 0  
Year to date cooling degree days 0  
Moisture  
Dew Point 15 °F    
Average Humidity 84    
Maximum Humidity 95    
Minimum Humidity 47    
Precipitation  
Precipitation 0.00 in 0.07 in 0.94 in (2013)
Month to date precipitation 1.39  
Year to date precipitation 3.80  
Snow  
Snow 0.00 in 1.30 in 12.40 in (2013)
Month to date snowfall 24.2  
Since 1 July snowfall 140.7  
Snow Depth -    
Sea Level Pressure  
Sea Level Pressure 29.54 in    
Wind  
Wind Speed 17 mph (NNW)    
Max Wind Speed 31 mph    
Max Gust Speed 43 mph    
Visibility 2 miles    
Events Snow    
T = Trace of Precipitation, MM = Missing Value Source: NWS Daily Summary

Daily Weather History Graph

Daily Weather History Graph

Search for Another Location

Airport or City:

Trip Planner

Search our weather history database for the weather conditions in past years. The results will help you decide how hot, cold, wet, or windy it might be!

Date:

Astronomy

Feb. 19, 2013 Rise Set
Actual Time 7:45 AM EST 6:21 PM EST
Civil Twilight 7:15 AM EST 6:52 PM EST
Nautical Twilight 6:40 AM EST 7:27 PM EST
Astronomical Twilight 6:05 AM EST 8:02 PM EST
Moon 12:42 PM EST (2/19) 3:28 AM EST (2/19)
Length of Visible Light 11h 37m
Length of Day
10h 35m
Waxing Gibbous, 67% of the Moon is Illuminated
Feb 19
Waxing Gibbous
Feb 25
Full
Mar 4
Last Quarter
Mar 11
New
Mar 19
First Quarter

Hourly Weather History & Observations

Time (EST) Temp. Windchill Dew Point Humidity Pressure Visibility Wind Dir Wind Speed Gust Speed Precip Events Conditions
12:16 AM 30.9 °F 22.2 °F 29.3 °F 94% 29.37 in 5.0 mi North 10.4 mph - N/A   Overcast
12:37 AM 30.9 °F 22.2 °F 29.3 °F 94% 29.37 in 2.5 mi North 10.4 mph - N/A Snow Light Snow
12:57 AM 30.2 °F 20.8 °F 28.8 °F 94% 29.36 in 1.2 mi North 11.5 mph - N/A Snow Light Snow
1:16 AM 30.2 °F 20.8 °F 28.4 °F 93% 29.35 in 1.2 mi NNW 11.5 mph - N/A Snow Light Snow
1:37 AM 29.3 °F 20.2 °F 28.0 °F 95% 29.35 in 1.2 mi NNW 10.4 mph - N/A Snow Light Snow
1:57 AM 30.2 °F 20.8 °F 28.4 °F 93% 29.34 in 1.8 mi North 11.5 mph - N/A Snow Light Snow
2:17 AM 29.1 °F 18.4 °F 27.3 °F 93% 29.34 in 1.5 mi NNW 13.8 mph - N/A Snow Light Snow
2:37 AM 28.9 °F 17.7 °F 27.0 °F 92% 29.33 in 1.2 mi NNW 15.0 mph 18.4 mph N/A Snow Snow
2:56 AM 28.8 °F 18.4 °F 27.0 °F 93% 29.33 in 1.2 mi NNW 12.7 mph 18.4 mph N/A Snow Light Snow
3:17 AM 28.4 °F 17.0 °F 27.0 °F 94% 29.32 in 1.2 mi NNW 15.0 mph 19.6 mph N/A Snow Light Snow
3:37 AM 28.4 °F 16.2 °F 26.6 °F 93% 29.31 in 1.2 mi NNW 17.3 mph 21.9 mph N/A Snow Light Snow
3:56 AM 27.7 °F 14.1 °F 25.5 °F 92% 29.32 in 1.2 mi NW 20.7 mph 27.6 mph N/A Snow Snow
4:17 AM 24.8 °F 10.0 °F 23.0 °F 93% 29.32 in 1.5 mi NW 21.9 mph 25.3 mph N/A Snow Light Snow
4:36 AM 23.4 °F 8.1 °F 20.3 °F 88% 29.32 in 1.5 mi NW 21.9 mph 31.1 mph N/A Snow Light Snow
4:57 AM 22.3 °F 5.9 °F 18.9 °F 87% 29.32 in 1.5 mi NW 24.2 mph 34.5 mph N/A Snow Light Snow
5:16 AM 20.8 °F 4.4 °F 17.6 °F 87% 29.31 in 1.5 mi NW 23.0 mph 31.1 mph N/A Snow Light Snow
5:37 AM 19.9 °F 2.8 °F 16.5 °F 87% 29.32 in 1.2 mi NW 24.2 mph 34.5 mph N/A Snow Light Snow
5:57 AM 19.4 °F 2.8 °F 16.3 °F 88% 29.32 in 1.2 mi NW 21.9 mph 28.8 mph N/A Snow Light Snow
6:50 AM 19.4 °F 1.4 °F 14.0 °F 80% 29.33 in 2.5 mi NW 26.5 mph 34.5 mph N/A Snow Light Snow
7:55 AM 17.6 °F 1.3 °F 14.0 °F 86% 29.38 in 1.2 mi NW 19.6 mph 31.1 mph N/A Snow Light Snow
8:50 AM 17.6 °F -0.3 °F 14.0 °F 86% 29.41 in 0.8 mi NW 24.2 mph 33.4 mph N/A Snow Light Snow
9:50 AM 30.2 °F 16.8 °F 12.2 °F 47% 29.44 in 0.5 mi NW 23.0 mph 35.7 mph N/A Snow Light Snow
10:50 AM 15.8 °F -4.4 °F 10.4 °F 79% 29.48 in 0.5 mi NNW 29.9 mph 42.6 mph N/A Snow Light Snow
11:50 AM 15.8 °F -4.4 °F 10.4 °F 79% 29.52 in 1.2 mi NNW 29.9 mph 35.7 mph N/A Snow Light Snow
12:50 PM 14.0 °F -5.5 °F 6.8 °F 73% 29.56 in 1.0 mi NNW 25.3 mph 41.4 mph N/A Snow Light Snow
1:50 PM 12.2 °F -9.6 °F 6.8 °F 79% 29.58 in 1.0 mi NW 31.1 mph 41.4 mph N/A Snow Light Snow
2:50 PM 12.2 °F -8.6 °F 5.0 °F 73% 29.63 in 2.0 mi NW 27.6 mph 38.0 mph N/A Snow Blowing Snow
3:55 PM 12.2 °F -8.2 °F 5.0 °F 73% 29.70 in 1.5 mi NW 26.5 mph 34.5 mph N/A Snow Blowing Snow
4:50 PM 10.4 °F -10.3 °F 1.4 °F 67% 29.73 in 1.5 mi NNW 25.3 mph 34.5 mph N/A Snow Light Snow
5:50 PM 10.4 °F -7.7 °F 3.2 °F 73% 29.77 in 4.0 mi NNW 18.4 mph 31.1 mph N/A Snow Light Snow
7:55 PM 8.6 °F -10.0 °F 3.2 °F 79% 29.83 in 2.5 mi NNW 18.4 mph 23.0 mph N/A Snow Light Snow
8:05 PM 8.6 °F -8.3 °F 5.0 °F 85% 29.84 in 1.8 mi NNW 15.0 mph 23.0 mph N/A Snow Light Snow
8:50 PM 10.4 °F -8.2 °F 5.0 °F 79% 29.84 in 1.2 mi NNW 19.6 mph 32.2 mph N/A Snow Light Snow
9:30 PM 10.4 °F -7.7 °F 5.0 °F 79% 29.86 in 0.8 mi NNW 18.4 mph 27.6 mph N/A Snow Snow
9:50 PM 10.4 °F -6.6 °F 6.8 °F 85% 29.86 in 0.8 mi NNW 16.1 mph 26.5 mph N/A Snow Snow
10:17 PM 10.6 °F -7.9 °F 5.9 °F 81% 29.87 in 0.8 mi NNW 19.6 mph 34.5 mph N/A Snow Snow
10:36 PM 10.8 °F -9.8 °F 6.3 °F 82% 29.87 in 0.8 mi NNW 25.3 mph 33.4 mph N/A Snow Snow
10:57 PM 10.8 °F -8.1 °F 6.6 °F 83% 29.88 in 0.8 mi North 20.7 mph 34.5 mph N/A Snow Light Snow
11:17 PM 10.6 °F -7.4 °F 6.6 °F 84% 29.88 in 0.8 mi NNW 18.4 mph 34.5 mph N/A   Overcast
11:36 PM 10.4 °F -8.2 °F 6.6 °F 85% 29.90 in - NNW 19.6 mph 31.1 mph N/A   Overcast
11:57 PM 10.4 °F -9.1 °F 6.6 °F 85% 29.91 in - NNW 21.9 mph 29.9 mph N/A   Overcast